Location: Unspecified
(0.0000°N, 0.0000°E)
Time: 08:39:17
(UTC+00:00)

Explorer 11/Cluster Stage 4 - Visible Passes

Search period start: 25 May 2017 00:00
Search period end: 04 June 2017 00:00
Orbit: 467 x 1263 km, 28.8° (Epoch: 24 May)

Date Brightness Start Highest point End Pass type
(mag) Time Alt. Az. Time Alt. Az. Time Alt. Az.
25 May 8.4 19:02:45 10° NW 19:10:01 34° NNE 19:14:30 19° ENE visible
25 May 8.3 20:51:39 10° WNW 20:56:42 42° WNW 20:56:42 42° WNW visible
26 May 8.2 18:52:14 10° NW 18:59:52 40° NNE 19:05:07 18° E visible
26 May 8.0 20:41:23 10° WNW 20:47:18 49° W 20:47:18 49° W visible
27 May 8.1 18:41:48 10° NW 18:49:40 47° NNE 18:55:44 16° E visible
27 May 7.9 20:31:11 10° WNW 20:37:55 53° WSW 20:37:55 53° WSW visible
28 May 7.9 18:31:24 10° NW 18:39:27 55° NNE 18:46:22 14° ESE visible
28 May 7.8 20:21:03 10° WNW 20:28:34 50° SW 20:28:34 50° SW visible
29 May 7.8 18:21:04 10° NW 18:29:12 64° NNE 18:37:01 11° ESE visible
29 May 8.0 20:11:00 10° W 20:18:45 44° SSW 20:19:13 43° SSW visible
30 May 7.7 05:27:15 10° SSW 05:29:48 17° SSE 05:32:17 10° ESE visible
30 May 7.7 18:10:48 10° NW 18:18:56 75° NNE 18:27:06 10° ESE visible
30 May 8.2 20:01:01 10° W 20:08:32 38° SSW 20:09:52 36° S visible
31 May 7.3 05:16:48 10° SSW 05:19:56 23° SSE 05:22:53 10° E visible
31 May 8.5 19:51:07 10° W 19:58:20 33° SSW 20:00:31 29° S visible
01 Jun 6.9 05:06:55 12° SSW 05:10:04 31° SSE 05:13:20 10° E visible
01 Jun 8.7 19:41:18 10° W 19:48:09 28° SSW 19:51:08 23° S visible
02 Jun 6.4 04:57:37 19° SW 05:00:11 44° SSE 05:03:42 10° ENE visible
02 Jun 8.9 19:31:35 10° WSW 19:38:00 25° SSW 19:41:45 18° S visible
03 Jun 5.9 04:48:19 28° SW 04:50:17 62° SSE 04:53:58 10° ENE visible
03 Jun 9.1 19:21:59 10° WSW 19:27:53 21° SSW 19:32:20 14° SSE visible
